| time (UTC) | temp F | wind direction | speed knots | gust knots | rain 1hr in | rain 24hr in | rain mn in | humidity % | barometer mb |
| 20260506103050 | 53 | 85 | 0.0 | 0.0 | 0.00 | 0.00 | 0.00 | 65 | 1013.8 |
| 20260506102549 | 54 | 85 | 0.0 | 0.0 | 0.00 | 0.00 | 0.00 | 63 | 1013.6 |
| 20260506102046 | 55 | 85 | 0.0 | 0.0 | 0.00 | 0.00 | 0.00 | 62 | 1013.5 |
| 20260506101543 | 55 | 85 | 0.0 | 0.0 | 0.00 | 0.00 | 0.00 | 60 | 1013.6 |
| 20260506101040 | 55 | 84 | 0.0 | 0.0 | 0.00 | 0.00 | 0.00 | 59 | 1013.5 |
| 20260506100538 | 56 | 84 | 0.0 | 0.0 | 0.00 | 0.00 | 0.00 | 57 | 1013.5 |
| 20260506100036 | 55 | 82 | 0.9 | 0.9 | 0.00 | 0.00 | 0.00 | 56 | 1013.5 |
| 20260506095534 | 56 | 317 | 0.9 | 0.9 | 0.00 | 0.00 | 0.00 | 57 | 1013.4 |
| 20260506095030 | 56 | 316 | 0.0 | 0.0 | 0.00 | 0.00 | 0.00 | 55 | 1013.6 |
| 20260506094528 | 57 | 316 | 0.0 | 0.0 | 0.00 | 0.00 | 0.00 | 53 | 1013.4 |
| 20260506094026 | 57 | 316 | 0.0 | 0.0 | 0.00 | 0.00 | 0.00 | 52 | 1013.3 |
| 20260506093524 | 57 | 316 | 0.0 | 0.0 | 0.00 | 0.00 | 0.00 | 51 | 1013.3 |
| 20260506093021 | 57 | 316 | 0.0 | 0.0 | 0.00 | 0.00 | 0.00 | 50 | 1013.1 |
| 20260506092519 | 57 | 316 | 0.9 | 0.9 | 0.00 | 0.00 | 0.00 | 50 | 1013.2 |
| 20260506092015 | 57 | 323 | 0.9 | 0.9 | 0.00 | 0.00 | 0.00 | 50 | 1013.2 |
| 20260506091514 | 56 | 280 | 1.7 | 2.6 | 0.00 | 0.00 | 0.00 | 52 | 1013.2 |
| 20260506091011 | 56 | 330 | 0.0 | 0.0 | 0.00 | 0.00 | 0.00 | 55 | 1013.2 |
| 20260506090509 | 57 | 332 | 0.0 | 0.0 | 0.00 | 0.00 | 0.00 | 54 | 1013.1 |
| 20260506090004 | 57 | 332 | 0.0 | 0.0 | 0.00 | 0.00 | 0.00 | 53 | 1013.2 |
| 20260506085501 | 58 | 307 | 0.0 | 0.0 | 0.00 | 0.00 | 0.00 | 53 | 1013.3 |
| 20260506084958 | 59 | 317 | 0.9 | 0.0 | 0.00 | 0.00 | 0.00 | 52 | 1013.2 |
| 20260506084455 | 59 | 357 | 0.9 | 0.9 | 0.00 | 0.00 | 0.00 | 51 | 1013.3 |
| 20260506083951 | 60 | 355 | 0.9 | 1.7 | 0.00 | 0.00 | 0.00 | 50 | 1013.1 |
| 20260506083448 | 60 | 277 | 0.9 | 1.7 | 0.00 | 0.00 | 0.00 | 50 | 1013.3 |
| 20260506082945 | 60 | 235 | 1.7 | 1.7 | 0.00 | 0.00 | 0.00 | 52 | 1013.3 |
| 20260506082442 | 60 | 241 | 0.9 | 0.9 | 0.00 | 0.00 | 0.00 | 55 | 1013.2 |
| 20260506081938 | 60 | 251 | 0.9 | 0.9 | 0.00 | 0.00 | 0.00 | 55 | 1013.2 |
| 20260506081437 | 60 | 232 | 0.9 | 0.9 | 0.00 | 0.00 | 0.00 | 56 | 1013.2 |
| 20260506080933 | 60 | 232 | 0.9 | 0.9 | 0.00 | 0.00 | 0.00 | 57 | 1013.3 |
| 20260506080430 | 60 | 231 | 0.9 | 1.7 | 0.00 | 0.00 | 0.00 | 57 | 1013.5 |
| 20260506073414 | 60 | 272 | 0.0 | 0.0 | 0.00 | 0.00 | 0.00 | 58 | 1013.4 |
| 20260506072912 | 60 | 272 | 0.0 | 0.0 | 0.00 | 0.00 | 0.00 | 58 | 1013.2 |
| 20260506072409 | 60 | 265 | 0.0 | 0.0 | 0.00 | 0.00 | 0.00 | 57 | 1013.4 |
| 20260506071906 | 60 | 257 | 0.0 | 0.0 | 0.00 | 0.00 | 0.00 | 57 | 1013.5 |
| 20260506071404 | 60 | 271 | 0.0 | 0.0 | 0.00 | 0.00 | 0.00 | 57 | 1013.3 |
| 20260506070901 | 61 | 293 | 0.0 | 0.0 | 0.00 | 0.00 | 0.00 | 56 | 1013.2 |
| 20260506070358 | 61 | 291 | 0.0 | 0.0 | 0.00 | 0.00 | 0.00 | 55 | 1013.3 |
| 20260506062335 | 62 | 313 | 0.9 | 0.9 | 0.00 | 0.19 | 0.19 | 44 | 1013.0 |
| 20260506061831 | 63 | 300 | 2.6 | 2.6 | 0.00 | 0.19 | 0.19 | 43 | 1013.1 |
| 20260506061328 | 63 | 292 | 0.0 | 0.0 | 0.00 | 0.19 | 0.19 | 42 | 1013.1 |
| 20260506060826 | 63 | 308 | 0.9 | 0.9 | 0.00 | 0.19 | 0.19 | 41 | 1013.3 |
| 20260506060324 | 63 | 306 | 2.6 | 2.6 | 0.00 | 0.19 | 0.19 | 41 | 1013.1 |
| 20260506051255 | 65 | 263 | 2.6 | 4.3 | 0.00 | 0.19 | 0.19 | 47 | 1012.8 |
| 20260506050753 | 65 | 301 | 0.9 | 1.7 | 0.00 | 0.19 | 0.19 | 48 | 1012.6 |
| 20260506050250 | 65 | 308 | 2.6 | 2.6 | 0.00 | 0.19 | 0.19 | 47 | 1012.7 |
| 20260506044741 | 66 | 281 | 2.6 | 2.6 | 0.00 | 0.19 | 0.19 | 46 | 1012.6 |
| 20260506044238 | 65 | 328 | 4.3 | 5.2 | 0.00 | 0.19 | 0.19 | 46 | 1012.2 |
| 20260506043736 | 66 | 301 | 1.7 | 1.7 | 0.00 | 0.19 | 0.19 | 45 | 1012.5 |
| 20260506043233 | 65 | 293 | 0.9 | 1.7 | 0.00 | 0.19 | 0.19 | 45 | 1012.2 |
| 20260506042731 | 66 | 293 | 1.7 | 1.7 | 0.00 | 0.19 | 0.19 | 44 | 1012.1 |
| 20260506042229 | 66 | 300 | 0.0 | 0.9 | 0.00 | 0.19 | 0.19 | 44 | 1012.4 |
| 20260506041728 | 66 | 304 | 1.7 | 2.6 | 0.00 | 0.19 | 0.19 | 44 | 1012.2 |
| 20260506041224 | 65 | 242 | 2.6 | 2.6 | 0.00 | 0.19 | 0.19 | 42 | 1011.9 |
| 20260506040722 | 65 | 313 | 0.9 | 0.9 | 0.00 | 0.19 | 0.19 | 41 | 1011.8 |
| 20260506040219 | 65 | 341 | 0.0 | 0.0 | 0.00 | 0.19 | 0.19 | 40 | 1011.8 |
| 20260506035715 | 66 | 262 | 0.0 | 0.0 | 0.00 | 0.19 | 0.19 | 39 | 1011.7 |
| 20260506035213 | 66 | 246 | 0.9 | 0.9 | 0.00 | 0.19 | 0.19 | 38 | 1011.6 |
| 20260506034709 | 66 | 269 | 0.9 | 0.9 | 0.00 | 0.19 | 0.19 | 37 | 1011.5 |
| 20260506034207 | 66 | 278 | 0.0 | 0.0 | 0.00 | 0.19 | 0.19 | 37 | 1011.5 |
| 20260506033704 | 67 | 307 | 0.9 | 0.9 | 0.00 | 0.19 | 0.19 | 36 | 1011.4 |
| 20260506033200 | 67 | 306 | 0.0 | 0.0 | 0.00 | 0.19 | 0.19 | 36 | 1011.3 |
| 20260506032658 | 67 | 304 | 0.9 | 0.9 | 0.00 | 0.19 | 0.19 | 35 | 1011.3 |
| 20260506032155 | 68 | 301 | 1.7 | 1.7 | 0.00 | 0.19 | 0.19 | 34 | 1011.2 |
| 20260506031651 | 68 | 276 | 1.7 | 1.7 | 0.00 | 0.19 | 0.19 | 33 | 1010.9 |
| 20260506031148 | 68 | 330 | 3.5 | 5.2 | 0.00 | 0.19 | 0.19 | 33 | 1011.1 |
| 20260506030647 | 68 | 319 | 1.7 | 2.6 | 0.00 | 0.19 | 0.19 | 32 | 1011.0 |
| 20260506030144 | 68 | 299 | 1.7 | 1.7 | 0.00 | 0.19 | 0.19 | 32 | 1010.9 |
| 20260506025640 | 69 | 326 | 0.0 | 0.0 | 0.00 | 0.19 | 0.19 | 31 | 1010.9 |
| 20260506025136 | 69 | 266 | 0.9 | 0.9 | 0.00 | 0.19 | 0.19 | 31 | 1011.1 |
| 20260506024634 | 69 | 337 | 2.6 | 5.2 | 0.00 | 0.19 | 0.19 | 31 | 1010.9 |
| 20260506024130 | 68 | 338 | 1.7 | 1.7 | 0.00 | 0.19 | 0.19 | 31 | 1010.5 |
| 20260506023627 | 68 | 347 | 2.6 | 5.2 | 0.00 | 0.19 | 0.19 | 31 | 1010.4 |
| 20260506023124 | 69 | 268 | 1.7 | 1.7 | 0.00 | 0.19 | 0.19 | 30 | 1010.5 |
| 20260506022621 | 69 | 280 | 0.9 | 1.7 | 0.00 | 0.19 | 0.19 | 31 | 1010.3 |
| 20260506022119 | 69 | 283 | 1.7 | 1.7 | 0.00 | 0.19 | 0.19 | 30 | 1010.1 |
| 20260506021616 | 69 | 325 | 0.9 | 0.9 | 0.00 | 0.19 | 0.19 | 30 | 1010.1 |
| 20260506021113 | 69 | 330 | 3.5 | 6.1 | 0.00 | 0.19 | 0.19 | 30 | 1010.1 |
| 20260506020610 | 69 | 282 | 3.5 | 4.3 | 0.00 | 0.19 | 0.19 | 31 | 1009.9 |
| 20260506020108 | 70 | 322 | 4.3 | 5.2 | 0.00 | 0.19 | 0.19 | 31 | 1009.7 |
| 20260506015605 | 70 | 307 | 2.6 | 4.3 | 0.00 | 0.19 | 0.19 | 31 | 1009.8 |
| 20260506015102 | 71 | 312 | 2.6 | 4.3 | 0.00 | 0.19 | 0.19 | 31 | 1009.8 |
| 20260506014600 | 71 | 302 | 4.3 | 5.2 | 0.00 | 0.19 | 0.19 | 31 | 1009.7 |
| 20260506014055 | 71 | 292 | 6.1 | 7.8 | 0.00 | 0.19 | 0.19 | 31 | 1009.7 |
| 20260506013554 | 72 | 274 | 3.5 | 5.2 | 0.00 | 0.19 | 0.19 | 31 | 1009.7 |
| 20260506013050 | 73 | 309 | 3.5 | 7.8 | 0.00 | 0.19 | 0.19 | 31 | 1009.3 |
| 20260506012546 | 73 | 309 | 2.6 | 5.2 | 0.00 | 0.19 | 0.19 | 31 | 1009.7 |
| 20260506012043 | 73 | 292 | 3.5 | 2.6 | 0.00 | 0.19 | 0.19 | 29 | 1009.6 |
| 20260506011541 | 73 | 294 | 3.5 | 5.2 | 0.00 | 0.19 | 0.19 | 28 | 1009.7 |
| 20260506011036 | 74 | 305 | 1.7 | 1.7 | 0.00 | 0.19 | 0.19 | 28 | 1009.5 |
| 20260506010531 | 74 | 287 | 4.3 | 7.8 | 0.00 | 0.19 | 0.19 | 28 | 1009.5 |
| 20260506010027 | 74 | 335 | 2.6 | 4.3 | 0.00 | 0.19 | 0.19 | 28 | 1009.1 |
| 20260506005524 | 75 | 271 | 6.1 | 8.7 | 0.00 | 0.19 | 0.19 | 26 | 1009.0 |
| 20260506005020 | 75 | 246 | 2.6 | 2.6 | 0.00 | 0.19 | 0.19 | 26 | 1009.0 |
| 20260506004517 | 75 | 254 | 5.2 | 7.8 | 0.00 | 0.19 | 0.19 | 26 | 1009.0 |
| 20260506004014 | 75 | 307 | 1.7 | 1.7 | 0.00 | 0.19 | 0.19 | 26 | 1008.9 |
| 20260506003510 | 75 | 289 | 2.6 | 4.3 | 0.00 | 0.19 | 0.19 | 26 | 1009.2 |
| 20260506003006 | 75 | 315 | 4.3 | 6.1 | 0.00 | 0.19 | 0.19 | 26 | 1009.0 |
| 20260506002502 | 75 | 314 | 1.7 | 2.6 | 0.00 | 0.19 | 0.19 | 27 | 1008.9 |
| 20260506001958 | 76 | 249 | 1.7 | 1.7 | 0.00 | 0.19 | 0.19 | 26 | 1009.1 |
| 20260506001455 | 76 | 304 | 4.3 | 5.2 | 0.00 | 0.19 | 0.19 | 25 | 1008.9 |
| 20260506000952 | 76 | 290 | 3.5 | 4.3 | 0.00 | 0.19 | 0.19 | 26 | 1009.0 |
| 20260506000449 | 76 | 298 | 5.2 | 7.0 | 0.00 | 0.19 | 0.19 | 26 | 1008.8 |
| 20260505235946 | 77 | 267 | 5.2 | 9.6 | 0.00 | 0.19 | 0.19 | 26 | 1008.9 |
| 20260505235445 | 76 | 294 | 6.1 | 7.8 | 0.00 | 0.19 | 0.19 | 26 | 1008.5 |
| 20260505234941 | 74 | 274 | 3.5 | 5.2 | 0.00 | 0.19 | 0.19 | 27 | 1008.6 |
| 20260505234439 | 75 | 314 | 3.5 | 7.0 | 0.00 | 0.19 | 0.19 | 28 | 1008.5 |
| 20260505233935 | 76 | 254 | 6.1 | 7.8 | 0.00 | 0.19 | 0.19 | 26 | 1008.6 |
| 20260505233433 | 75 | 233 | 8.7 | 11.3 | 0.00 | 0.19 | 0.19 | 27 | 1008.5 |
| 20260505232930 | 74 | 294 | 2.6 | 2.6 | 0.00 | 0.19 | 0.19 | 29 | 1008.6 |
| 20260505232428 | 74 | 230 | 4.3 | 5.2 | 0.00 | 0.19 | 0.19 | 28 | 1008.5 |
| 20260505231925 | 76 | 227 | 1.7 | 2.6 | 0.00 | 0.19 | 0.19 | 28 | 1008.8 |
| 20260505231422 | 76 | 298 | 4.3 | 5.2 | 0.00 | 0.19 | 0.19 | 26 | 1008.6 |
| 20260505230920 | 75 | 222 | 1.7 | 1.7 | 0.00 | 0.19 | 0.19 | 26 | 1008.6 |
| 20260505230418 | 76 | 329 | 3.5 | 4.3 | 0.00 | 0.19 | 0.19 | 27 | 1008.6 |
| 20260505225914 | 77 | 236 | 4.3 | 6.1 | 0.00 | 0.19 | 0.19 | 25 | 1008.8 |
| 20260505225411 | 77 | 190 | 2.6 | 2.6 | 0.00 | 0.19 | 0.19 | 25 | 1008.5 |
| 20260505224906 | 77 | 295 | 1.7 | 2.6 | 0.00 | 0.19 | 0.19 | 26 | 1008.9 |
| 20260505224404 | 77 | 340 | 2.6 | 4.3 | 0.00 | 0.19 | 0.19 | 26 | 1008.9 |
| 20260505223901 | 76 | 251 | 7.8 | 7.8 | 0.00 | 0.19 | 0.19 | 26 | 1008.8 |
| 20260505223358 | 76 | 200 | 7.0 | 12.2 | 0.00 | 0.19 | 0.19 | 27 | 1009.0 |
| 20260505222853 | 77 | 267 | 5.2 | 7.0 | 0.00 | 0.19 | 0.19 | 25 | 1009.1 |
| 20260505222350 | 76 | 297 | 6.1 | 7.8 | 0.00 | 0.19 | 0.19 | 28 | 1009.1 |
| 20260505221847 | 77 | 301 | 6.1 | 7.8 | 0.00 | 0.19 | 0.19 | 26 | 1009.2 |
| 20260505221344 | 76 | 185 | 5.2 | 7.0 | 0.00 | 0.19 | 0.19 | 27 | 1009.3 |
| 20260505220841 | 77 | 272 | 4.3 | 6.1 | 0.00 | 0.19 | 0.19 | 28 | 1009.0 |
| 20260505220338 | 76 | 265 | 1.7 | 1.7 | 0.00 | 0.19 | 0.19 | 30 | 1009.2 |
| 20260505215836 | 76 | 270 | 6.1 | 8.7 | 0.00 | 0.19 | 0.19 | 28 | 1009.2 |
| 20260505215333 | 76 | 266 | 3.5 | 6.1 | 0.00 | 0.19 | 0.19 | 27 | 1009.5 |
| 20260505214831 | 77 | 280 | 7.8 | 11.3 | 0.00 | 0.19 | 0.19 | 29 | 1009.6 |
| 20260505214329 | 76 | 285 | 5.2 | 8.7 | 0.00 | 0.19 | 0.19 | 28 | 1009.6 |
| 20260505213825 | 76 | 304 | 7.8 | 13.0 | 0.00 | 0.19 | 0.19 | 27 | 1009.6 |
| 20260505213323 | 76 | 312 | 7.0 | 13.0 | 0.00 | 0.19 | 0.19 | 27 | 1009.5 |
| 20260505212819 | 76 | 288 | 2.6 | 4.3 | 0.00 | 0.19 | 0.19 | 29 | 1009.5 |
| 20260505212317 | 76 | 335 | 13.9 | 15.6 | 0.00 | 0.19 | 0.19 | 27 | 1009.7 |
| 20260505211812 | 76 | 301 | 4.3 | 7.0 | 0.00 | 0.19 | 0.19 | 30 | 1009.7 |
| 20260505211310 | 76 | 272 | 4.3 | 6.1 | 0.00 | 0.19 | 0.19 | 29 | 1009.8 |
| 20260505210806 | 76 | 276 | 9.6 | 14.8 | 0.00 | 0.19 | 0.19 | 29 | 1009.7 |
| 20260505210303 | 77 | 274 | 7.0 | 7.8 | 0.00 | 0.19 | 0.19 | 30 | 1010.0 |
| 20260505205800 | 76 | 237 | 3.5 | 4.3 | 0.00 | 0.19 | 0.19 | 32 | 1009.8 |
| 20260505205259 | 76 | 272 | 9.6 | 13.9 | 0.00 | 0.19 | 0.19 | 31 | 1010.0 |
| 20260505204755 | 76 | 257 | 5.2 | 7.0 | 0.00 | 0.19 | 0.19 | 33 | 1009.9 |
| 20260505204253 | 76 | 327 | 2.6 | 4.3 | 0.00 | 0.19 | 0.19 | 32 | 1010.0 |
| 20260505203750 | 76 | 256 | 5.2 | 7.8 | 0.00 | 0.19 | 0.19 | 33 | 1010.0 |
| 20260505203247 | 75 | 299 | 4.3 | 7.0 | 0.00 | 0.19 | 0.19 | 34 | 1009.9 |
| 20260505202742 | 74 | 265 | 4.3 | 5.2 | 0.00 | 0.19 | 0.19 | 35 | 1010.0 |
| 20260505202239 | 75 | 254 | 5.2 | 7.0 | 0.00 | 0.19 | 0.19 | 34 | 1009.9 |
| 20260505201735 | 73 | 303 | 4.3 | 5.2 | 0.00 | 0.19 | 0.19 | 36 | 1010.0 |
| 20260505201233 | 73 | 310 | 3.5 | 5.2 | 0.00 | 0.19 | 0.19 | 37 | 1010.2 |
| 20260505200731 | 73 | 295 | 4.3 | 6.1 | 0.00 | 0.19 | 0.19 | 38 | 1010.1 |
| 20260505200228 | 72 | 275 | 4.3 | 5.2 | 0.00 | 0.19 | 0.19 | 40 | 1010.5 |
| 20260505195723 | 72 | 312 | 4.3 | 5.2 | 0.00 | 0.19 | 0.19 | 42 | 1010.2 |
| 20260505195221 | 72 | 258 | 3.5 | 5.2 | 0.00 | 0.19 | 0.19 | 42 | 1010.3 |
| 20260505194718 | 72 | 261 | 0.9 | 1.7 | 0.00 | 0.19 | 0.19 | 47 | 1010.4 |
| 20260505194214 | 71 | 333 | 0.9 | 1.7 | 0.00 | 0.19 | 0.19 | 47 | 1010.3 |
| 20260505193710 | 72 | 357 | 2.6 | 2.6 | 0.00 | 0.19 | 0.19 | 47 | 1010.4 |
| 20260505193208 | 72 | 294 | 0.9 | 0.9 | 0.00 | 0.19 | 0.19 | 48 | 1010.2 |
| 20260505192707 | 73 | 124 | 0.9 | 0.9 | 0.00 | 0.19 | 0.19 | 48 | 1010.5 |
| 20260505192204 | 73 | 106 | 0.9 | 1.7 | 0.00 | 0.19 | 0.19 | 47 | 1010.5 |
| 20260505191702 | 71 | 99 | 0.9 | 0.9 | 0.00 | 0.19 | 0.19 | 50 | 1010.5 |
| 20260505191200 | 71 | 86 | 0.9 | 0.9 | 0.00 | 0.19 | 0.19 | 50 | 1010.5 |
| 20260505190656 | 70 | 68 | 0.9 | 0.9 | 0.00 | 0.19 | 0.19 | 52 | 1010.6 |
| 20260505190155 | 71 | 67 | 0.0 | 0.0 | 0.00 | 0.19 | 0.19 | 52 | 1010.9 |
| 20260505185653 | 71 | 341 | 0.9 | 0.9 | 0.00 | 0.19 | 0.19 | 49 | 1011.1 |
| 20260505185149 | 70 | 0 | 0.0 | 0.0 | 0.00 | 0.19 | 0.19 | 51 | 1011.2 |
| 20260505184645 | 70 | 56 | 0.0 | 0.0 | 0.00 | 0.19 | 0.19 | 53 | 1011.2 |
| 20260505184143 | 70 | 21 | 0.0 | 0.0 | 0.00 | 0.19 | 0.19 | 52 | 1011.4 |
| 20260505183639 | 69 | 26 | 0.9 | 1.7 | 0.00 | 0.19 | 0.19 | 52 | 1011.5 |
| 20260505183137 | 69 | 60 | 0.9 | 0.9 | 0.00 | 0.19 | 0.19 | 52 | 1011.4 |
| 20260505182633 | 69 | 10 | 0.9 | 0.9 | 0.00 | 0.19 | 0.19 | 54 | 1011.5 |
| 20260505182130 | 69 | 246 | 0.9 | 0.9 | 0.00 | 0.19 | 0.19 | 53 | 1011.4 |
| 20260505181626 | 69 | 223 | 1.7 | 1.7 | 0.00 | 0.19 | 0.19 | 52 | 1011.7 |
| 20260505181124 | 68 | 313 | 1.7 | 1.7 | 0.00 | 0.19 | 0.19 | 54 | 1011.6 |
| 20260505180620 | 69 | 264 | 1.7 | 1.7 | 0.00 | 0.19 | 0.19 | 55 | 1011.8 |
| 20260505180118 | 70 | 356 | 0.9 | 0.9 | 0.00 | 0.19 | 0.19 | 53 | 1011.7 |
| 20260505175613 | 70 | 57 | 0.9 | 0.9 | 0.00 | 0.19 | 0.19 | 54 | 1011.7 |
| 20260505175110 | 70 | 300 | 2.6 | 2.6 | 0.00 | 0.19 | 0.19 | 52 | 1011.6 |
| 20260505174607 | 70 | 245 | 1.7 | 2.6 | 0.00 | 0.19 | 0.19 | 54 | 1011.7 |
| 20260505174103 | 69 | 184 | 0.9 | 0.9 | 0.00 | 0.19 | 0.19 | 54 | 1012.0 |
| 20260505173559 | 69 | 299 | 0.0 | 0.0 | 0.00 | 0.19 | 0.19 | 56 | 1011.7 |
| 20260505173056 | 69 | 254 | 0.9 | 1.7 | 0.00 | 0.19 | 0.19 | 56 | 1011.7 |
| 20260505172554 | 69 | 16 | 0.9 | 0.9 | 0.00 | 0.19 | 0.19 | 57 | 1011.7 |
| 20260505172050 | 68 | 157 | 0.0 | 0.0 | 0.00 | 0.19 | 0.19 | 58 | 1011.9 |
| 20260505171545 | 68 | 258 | 1.7 | 1.7 | 0.00 | 0.19 | 0.19 | 58 | 1012.0 |
| 20260505171043 | 68 | 62 | 0.0 | 0.0 | 0.00 | 0.19 | 0.19 | 58 | 1011.6 |
| 20260505170539 | 68 | 69 | 0.9 | 0.9 | 0.00 | 0.19 | 0.19 | 58 | 1011.7 |
| 20260505170036 | 69 | 9 | 0.9 | 0.9 | 0.00 | 0.19 | 0.19 | 58 | 1011.8 |
| 20260505165531 | 69 | 328 | 2.6 | 2.6 | 0.00 | 0.19 | 0.19 | 61 | 1011.7 |
| 20260505165027 | 68 | 93 | 0.0 | 0.0 | 0.00 | 0.19 | 0.19 | 62 | 1011.8 |
| 20260505164523 | 67 | 6 | 0.0 | 0.0 | 0.00 | 0.19 | 0.19 | 65 | 1011.5 |
| 20260505164021 | 66 | 63 | 0.9 | 1.7 | 0.00 | 0.19 | 0.19 | 66 | 1011.8 |
| 20260505163519 | 66 | 23 | 0.9 | 0.9 | 0.00 | 0.19 | 0.19 | 65 | 1011.9 |
| 20260505163016 | 66 | 1 | 0.9 | 1.7 | 0.00 | 0.19 | 0.19 | 67 | 1011.8 |
| 20260505162509 | 65 | 266 | 0.0 | 0.0 | 0.00 | 0.19 | 0.19 | 67 | 1011.9 |
| 20260505162006 | 65 | 300 | 0.9 | 0.9 | 0.00 | 0.19 | 0.19 | 67 | 1011.9 |
| 20260505161503 | 65 | 194 | 0.0 | 0.0 | 0.00 | 0.19 | 0.19 | 70 | 1011.9 |
| 20260505161000 | 64 | 193 | 0.0 | 0.0 | 0.00 | 0.19 | 0.19 | 68 | 1011.9 |
| 20260505160458 | 65 | 156 | 0.9 | 0.0 | 0.00 | 0.19 | 0.19 | 68 | 1012.0 |
| 20260505152934 | 64 | 184 | 0.0 | 0.0 | 0.00 | 0.19 | 0.19 | 82 | 1011.7 |
| 20260505152432 | 64 | 183 | 0.0 | 0.0 | 0.00 | 0.19 | 0.19 | 78 | 1011.5 |
| 20260505151931 | 63 | 202 | 0.0 | 0.0 | 0.00 | 0.19 | 0.19 | 81 | 1011.7 |
| 20260505151422 | 63 | 202 | 0.0 | 0.0 | 0.00 | 0.19 | 0.19 | 83 | 1011.5 |
| 20260505150920 | 63 | 202 | 0.0 | 0.0 | 0.00 | 0.19 | 0.19 | 84 | 1011.7 |
| 20260505150416 | 63 | 202 | 0.0 | 0.0 | 0.00 | 0.19 | 0.19 | 84 | 1011.6 |
| 20260505140346 | 60 | 94 | 0.0 | 0.0 | 0.00 | 0.19 | 0.19 | 91 | 1011.4 |
| 20260505130309 | 59 | 123 | 0.0 | 0.0 | 0.00 | 0.19 | 0.19 | 93 | 1011.0 |
| 20260505124800 | 59 | 125 | 0.0 | 0.0 | 0.00 | 0.19 | 0.19 | 94 | 1010.6 |
| 20260505124256 | 59 | 125 | 0.0 | 0.0 | 0.07 | 0.19 | 0.19 | 94 | 1010.9 |
| 20260505123752 | 59 | 126 | 0.0 | 0.0 | 0.07 | 0.19 | 0.19 | 93 | 1010.6 |
| 20260505123249 | 59 | 125 | 0.0 | 0.0 | 0.00 | 0.18 | 0.18 | 93 | 1010.6 |
| 20260505122745 | 59 | 126 | 0.0 | 0.0 | 0.00 | 0.18 | 0.18 | 93 | 1010.5 |
| 20260505122243 | 59 | 126 | 0.0 | 0.0 | 0.00 | 0.18 | 0.18 | 93 | 1010.4 |
| 20260505121739 | 59 | 111 | 0.0 | 0.0 | 0.00 | 0.18 | 0.18 | 93 | 1010.4 |
| 20260505121236 | 59 | 111 | 0.0 | 0.0 | 0.00 | 0.18 | 0.18 | 93 | 1010.3 |
| 20260505120732 | 58 | 111 | 0.0 | 0.0 | 0.00 | 0.18 | 0.18 | 93 | 1010.2 |
| 20260505120228 | 58 | 111 | 0.0 | 0.0 | 0.00 | 0.18 | 0.18 | 93 | 1010.4 |
| 20260505115727 | 58 | 112 | 0.9 | 0.9 | 0.00 | 0.18 | 0.18 | 94 | 1010.4 |
| 20260505115225 | 58 | 111 | 0.0 | 0.0 | 0.07 | 0.18 | 0.18 | 93 | 1010.3 |
| 20260505114722 | 58 | 111 | 0.0 | 0.0 | 0.07 | 0.18 | 0.18 | 93 | 1010.1 |
| 20260505114218 | 58 | 111 | 0.0 | 0.0 | 0.00 | 0.17 | 0.17 | 93 | 1010.1 |
| 20260505113715 | 58 | 111 | 0.0 | 0.0 | 0.00 | 0.17 | 0.17 | 93 | 1010.1 |
| 20260505113212 | 58 | 111 | 0.0 | 0.0 | 0.00 | 0.17 | 0.17 | 92 | 1010.4 |
| 20260505112708 | 58 | 111 | 0.0 | 0.0 | 0.00 | 0.17 | 0.17 | 92 | 1010.6 |
| 20260505112206 | 58 | 97 | 0.0 | 0.0 | 0.00 | 0.17 | 0.17 | 92 | 1010.6 |
| 20260505111705 | 58 | 97 | 0.0 | 0.0 | 0.00 | 0.17 | 0.17 | 92 | 1010.3 |
| 20260505111201 | 58 | 96 | 0.0 | 0.0 | 0.05 | 0.17 | 0.17 | 91 | 1010.3 |
| 20260505110658 | 58 | 96 | 0.0 | 0.0 | 0.05 | 0.17 | 0.17 | 91 | 1010.5 |
| 20260505110155 | 58 | 106 | 0.0 | 0.0 | 0.00 | 0.16 | 0.16 | 91 | 1010.9 |